Location: B?lite?ti
(46.2833°N, 22.7333°E)
Time: 17:06:59
(UTC+00:00)

CZ-4C R/B - Pass Details

Date: 24 January 2021
Orbit: 617 x 1385 km, 63.4° (Epoch: 28 February)

Event Time Altitude Azimuth Distance (km) Brightness Sun altitude
Rises 17:37:29 0° 301° (WNW) 3,406 6.2 -23.2°
Reaches altitude 10° 17:40:46 10° 322° (NW) 2,615 5.2 -23.8°
Maximum altitude 17:44:45 17° 2° (N) 2,299 4.4 -24.5°
Enters shadow 17:46:33 16° 21° (NNE) 2,466 4.4 -24.8°
